Location: Gönnheim
(49.4488°N, 8.2383°E)
Time: 21:29:51
(UTC+00:00)

Cosmos 1743 Rocket - Pass Details

Date: 19 May 2025
Orbit: 599 x 626 km, 82.6° (Epoch: 15 June)

Event Time Altitude Azimuth Distance (km) Brightness Sun altitude
Rises 23:20:17 0° 347° (NNW) 2,923 8.5 -20.6°
Reaches altitude 10° 23:22:33 10° 343° (NNW) 2,009 7.3 -20.6°
Maximum altitude 23:26:56 59° 265° (W) 724 3.8 -20.6°
Enters shadow 23:27:48 48° 218° (SW) 815 3.8 -20.6°
